409  
ASUS41 KLWX 192111  
RWRLWX  
 
REGIONAL WEATHER ROUNDUP  
NATIONAL WEATHER SERVICE BALTIMORE MD/WASHINGTON DC  
400 PM EST WED FEB 19 2020  
 
NOTE: "FAIR" INDICATES FEW OR NO CLOUDS BELOW 12,000 FEET  
WITH NO SIGNIFICANT WEATHER AND/OR S TO VISIBILITY
.  
TC=TEMPERATURE CELSIUS  
 
* =NON NWS SITE. STATION DOES NOT REPORT PRECIPITATION (E.G. RAIN,  
SNOW, ETC.), THUNDER, OR FOG.
 
 
DCZ001-MDZ009-015-VAZ040>042-051-053>054-192200-  
WASHINGTON METRO  
 
CITY SKY/WX TMP DP RH WIND PRES REMARKS
 
WASHINGTON NAT PTSUNNY 53 17 24 NW16 30.33S  
DULLES PTSUNNY 51 12 21 NW15 30.32R  
ANDREWS AFB FAIR 51 15 23 N15 30.30F  
FT BELVOIR FAIR 52 15 23 NW10 30.33R  
QUANTICO FAIR 52 17 25 N13G21 30.35S  
COLLEGE PARK* FAIR 51 4 14 NW13 30.31S  
LEESBURG* FAIR 50 19 29 N16G24 30.33S  
MANASSAS* FAIR 52 16 24 N14 30.33S  
GAITHERSBURG* FAIR 48 11 22 NW13G21 30.32R  
 

 
 
MDZ006>007-011-014-192200-  
BALTIMORE METRO  
 
CITY SKY/WX TMP DP RH WIND PRES REMARKS
 
BWI AIRPORT PTSUNNY 52 13 21 NW12G17 30.30R  
MD SCIENCE CTR N/A 50 13 22 MISG 30.31R  
MARTIN STATE MOSUNNY 50 14 23 NW13G23 30.32R  
ANNAPOLIS FAIR 51 18 27 NW13G21 30.30S  
ABERDEEN* PTSUNNY 50 14 23 NW6 30.31R  
FORT MEADE* FAIR 52 16 24 NW18G24 30.33S  
 

 
 
MDZ012-015-019>023-192200-  
MARYLAND EASTERN SHORE  
 
CITY SKY/WX TMP DP RH WIND PRES REMARKS
 
OCEAN CITY FAIR 49 22 34 NW6 30.31R  
SALISBURY FAIR 48 19 31 NW10 30.32R  
BAY BRIDGE AP* FAIR 50 21 32 W3 30.31S  
CAMBRIDGE* SUNNY 48 21 34 W9 30.33R  
EASTON* MOSUNNY 52 21 30 W7 30.35R  
 

 
 
MDZ017>025-192200-  
SOUTHERN MARYLAND  
 
CITY SKY/WX TMP DP RH WIND PRES REMARKS
 
PATUXENT RIVER PTSUNNY 50 23 34 NW9 30.33S  
ST INIGOES FAIR 52 26 36 W8 30.33R  
LEONARDTOWN* FAIR 48 16 27 W8 30.35R  
 

 
 
MDZ003>005-192200-  
NORTH CENTRAL MARYLAND  
 
CITY SKY/WX TMP DP RH WIND PRES REMARKS
 
FREDERICK* MOSUNNY 50 16 25 NW16 30.33R  
HAGERSTOWN APT FAIR 48 16 27 W18 30.32R  
 

 
 
MDZ501>502-192200-  
WESTERN MARYLAND  
 
CITY SKY/WX TMP DP RH WIND PRES REMARKS
 
OAKLAND* FAIR 32 18 55 W9 30.28S WCI 24  
CUMBERLAND* NOT AVBL  
 

 
 
VAZ025>031-192200-  
SHENANDOAH VALLEY  
 
CITY SKY/WX TMP DP RH WIND PRES REMARKS
 
WINCHESTER* FAIR 46 14 27 W16 30.31R  
FRONT ROYAL* FAIR 48 12 23 NW12G18 30.32R  
LURAY* FAIR 50 10 20 NW8G17 30.33R  
NEW MARKET* FAIR 48 8 19 N7 30.33R  
STAUNTON* FAIR 49 13 24 CALM 30.34S  
WAYNESBORO* FAIR 47 8 20 CALM 30.32S  
 

 
 
WVZ021-048>050-054>055-192200-  
EASTERN WEST VIRGINIA PANHANDLE  
 
CITY SKY/WX TMP DP RH WIND PRES REMARKS
 
MARTINSBURG FAIR 49 14 24 NW10 30.32R  
PETERSBURG* FAIR 46 15 28 NW13 30.36R  
 

 
 
VAZ036>039-050-192200-  
CENTRAL FOOTHILLS  
 
CITY SKY/WX TMP DP RH WIND PRES REMARKS
 
CHARLOTTESVILL FAIR 54 13 19 N3 30.33S  
CULPEPER* FAIR 53 11 19 NW5 30.34F  
ORANGE* FAIR 50 12 22 W7 30.33F  
GORDONSVILLE* FAIR 51 13 21 CALM 30.33S  
WARRENTON* FAIR 54 5 14 CALM 30.33S  
 

 
 
VAZ055>057-192200-  
NORTH AND CENTRAL PIEDMONT  
 
CITY SKY/WX TMP DP RH WIND PRES REMARKS
 
FREDERICKSBRG* FAIR 53 20 28 NW8G16 30.33S  
STAFFORD* FAIR 53 16 23 NW9 30.38S  
 

 
 
NCZ024-NYZ072-PAZ021-071-VAZ022-071-192200-  
OTHER REGIONAL OBSERVATIONS  
 
CITY SKY/WX TMP DP RH WIND PRES REMARKS
 
NEW YORK CITY FAIR 45 8 22 MISG 30.26R  
PHILADELPHIA PTSUNNY 50 14 23 NW15G25 30.28R  
PITTSBURGH FAIR 39 16 39 W9 30.38S WCI 33  
ROANOKE FAIR 51 15 23 N12 30.37S  
RICHMOND PTSUNNY 52 21 29 NW9 30.34S  
RALEIGH CLOUDY 48 39 71 CALM 30.35S  
 

 
 
ANZ530>537-192200-  
MARINE OBSERVATIONS  
 
STATION/POSITION TIME TEMP WIND PRES
 
AIR SEA DIR/SP/G  
(UTC) (F) (DEG/KT/KT) (MB)  
THOMAS PT LIGHT 2100 49 43 260/ 9/ 9 1027.0F  
BALT KEY BRIDGE 2030 50 310/ 20/ 24 1025.6S  
TOLCHESTER 2024 47 44 240/ 5/ 6 1026.2R  
LEWISETTA 2024 48 46 310/ 10/ 14 1027.4F  
SOLOMONS ISLAND 2030 48 44 330/ 6/ 11 1026.8R  
PINEY POINT 2030 300/ 13/ 16 N/A  
POTOMAC BUOY 2000 45 45 260/ 10/ 12 1027.3  
CAMBRIDGE 2024 47 45 290/ 7/ 12 1026.9R  
BISHOPS HEAD 2030 48 47 330/ 9/ 13 1026.9R  
 

 
 
 
 
CLICK HERE TO GO TO PREVIOUS BULLETINS.

The Nexlab VA Page
The Nexlab MD Page
The Nexlab WV Page Main Text Page